Location: Unspecified
(0.0000°N, 0.0000°E)
Time: 06:56:41
(UTC+00:00)

Tiangong 2 - Pass Details

Date: 15 December 2018
Orbit: 382 x 392 km, 42.8° (Epoch: 10 December)

Event Time Altitude Azimuth Distance (km) Brightness Sun altitude
Exits shadow 04:21:40 14° 34° (NE) 1,193 3.6 -21.3°
Maximum altitude 04:22:09 14° 45° (NE) 1,176 3.7 -21.2°
Drops below altitude 10° 04:23:57 10° 80° (E) 1,405 4.7 -20.8°
Sets 04:26:43 0° 106° (ESE) 2,264 6.5 -20.2°
